Weather Roundup
Issued by NWS

Home | Current Version | Previous Version | Graphics & Text | Print | Product List | Glossary Off
Versions: 1 2 3 4 5 6 7 8 9 10 11 12 13 14 15 16 17 18 19 20 21 22 23 24 25 26 27 28 29 30 31 32 33 34 35 36 37 38 39 40 41 42 43 44 45 46 47 48 49 50

000
NZUS93 KARX 011810
HRRWXR

CURRENT HOURLY OBSERVATIONS ACROSS
MUCH OF THE UPPER MISSISSIPPI VALLEY
NATIONAL WEATHER SERVICE LA CROSSE WI
100 PM CDT WED OCT 01 2014


...SOUTHEAST MINNESOTA...


CITY           SKY/WX    TMP DP  RH WIND       PRES   REMARKS
ROCHESTER      CLOUDY    54  52  93 S10       29.83S FOG
ROCHESTER/MAYO CLOUDY    54  52  94 SE10      29.82S
WINONA         CLOUDY    54  52  94 SE7       29.85F
AUSTIN         CLOUDY    54  52  94 S8        29.81S FOG
ALBERT LEA     CLOUDY    55  54  94 S9        29.80S FOG
DODGE CENTER   LGT RAIN  54  54 100 S13       29.81S
PRESTON        CLOUDY    54  51  89 S8        29.85R
OWATONNA       DRIZZLE   54  52  94 S3        29.81S
FARIBAULT      LGT RAIN  54  52  94 SE5       29.81S
$$

...ELSEWHERE IN MINNESOTA...


CITY           SKY/WX    TMP DP  RH WIND       PRES   REMARKS
MINNEAPOLIS    LGT RAIN  51  50  96 SE6       29.82S
INTNL FALLS    CLOUDY    52  47  83 VRB7G17   29.72S
DULUTH         LGT RAIN  49  46  90 SE12      29.82F FOG
RED WING       LGT RAIN  52  52 100 SE8       29.81S
REDWOOD FALLS  CLOUDY    62  55  77 S14       29.74F
MANKATO        CLOUDY    54  48  82 S7        29.79F
WORTHINGTON    CLOUDY    63  57  82 S6        29.75S
FAIRMONT       CLOUDY    57  54  88 SE9       29.77F
$$

...SOUTHWEST WISCONSIN...


CITY           SKY/WX    TMP DP  RH WIND       PRES   REMARKS
LA CROSSE      PTSUNNY   60  51  72 SE5       29.85F
PRAIRIE DU CHI PTSUNNY   63  50  61 SE9       29.85F
BOSCOBEL       PTSUNNY   66  52  60 SE9       29.87S
LONE ROCK      FAIR      69  51  52 SE9       29.87F
PLATTEVILLE    FAIR      65  54  67 SE14G20   29.87S
FORT MC COY    CLOUDY    60  50  69 E10       29.86F
CAMP DOUGLAS   CLOUDY    59  55  88 E10G17    29.88F
VIROQUA        MOCLDY    60  51  71 SE13G18   29.86F
WIS DELLS      FAIR      64  49  58 SE10      29.89F
$$

...ELSEWHERE IN WISCONSIN...


CITY           SKY/WX    TMP DP  RH WIND       PRES   REMARKS
MILWAUKEE      MOSUNNY   61  50  67 SE20      29.99F
MADISON        PTSUNNY   66  50  56 SE18      29.91F
GREEN BAY      CLOUDY    62  52  69 SE13      29.97F
EAU CLAIRE     LGT RAIN  51  48  89 SE7       29.84F
BLACK RVR FLS  CLOUDY    56  50  82 E5        29.86F
MEDFORD        CLOUDY    54  47  79 E12G20    29.88F
WAUSAU         MOSUNNY   59  49  69 SE10      29.90F
WIS RAPIDS     FAIR      60  49  66 SE12      29.91F
MARSHFIELD     FAIR      58  49  72 SE13      29.88F
RICE LAKE      LGT RAIN  49  48  93 SE13      29.85F
$$

...NORTHEAST IOWA...


CITY           SKY/WX    TMP DP  RH WIND       PRES   REMARKS
DECORAH        PTSUNNY   59  52  77 VRB6G14   29.85S
MASON CITY     LGT RAIN  56  55  97 SE15      29.81F FOG
CHARLES CITY   LGT RAIN  55  54  94 SE8       29.85R
OELWEIN        FAIR      63  54  72 S14       29.84S
$$

...ELSEWHERE IN IOWA...


CITY           SKY/WX    TMP DP  RH WIND       PRES   REMARKS
DES MOINES     CLOUDY    69  63  81 S10       29.78F
IOWA CITY      FAIR      61  57  87 S10       29.85S
FORT DODGE     CLOUDY    64  61  88 SE9       29.79S
$$

...NORTHERN ILLINOIS...


CITY           SKY/WX    TMP DP  RH WIND       PRES   REMARKS
CHICAGO-OHARE  MOSUNNY   65  49  56 S8        29.98F
CHICAGO-MIDWAY MOSUNNY   68  51  54 S8        29.98F
MOLINE         NOT AVBL
ROCKFORD       CLOUDY    69  51  52 SE16      29.94F
PEORIA         FAIR      77  59  53 SE8       29.91F
$$

NOTE: "FAIR" INDICATES FEW OR NO CLOUDS BELOW 12,000 FEET WITH NO
SIGNIFICANT WEATHER AND/OR OBSTRUCTIONS TO VISIBILITY. WIND
SPEEDS ARE IN MILES-PER-HOUR.



USA.gov is the U.S. government's official web portal to all federal, state and local government web resources and services.